Location: *
(37.5724°S, 58.0067°E)
Time: 18:24:17
(UTC+00:00)

Envisat - Pass Details

Date: 29 November 2022
Orbit: 763 x 765 km, 98.2° (Epoch: 29 January)

Event Time Altitude Azimuth Distance (km) Brightness Sun altitude
Rises 22:17:03 0° 56° (NE) 3,230 6.3 -22.2°
Reaches altitude 10° 22:20:01 10° 74° (ENE) 2,312 5.7 -21.9°
Maximum altitude 22:23:23 18° 115° (ESE) 1,829 5.7 -21.5°
Drops below altitude 10° 22:26:45 10° 157° (SSE) 2,330 6.6 -21.1°
Sets 22:29:45 0° 175° (S) 3,265 7.2 -20.7°
